Location: *
(45.5667°S, 177.5167°W)
Time: 15:51:15
(UTC+00:00)

Cosmos 1076 Rocket - Pass Details

Date: 29 May 2022
Orbit: 589 x 611 km, 82.5° (Epoch: 28 June)

Event Time Altitude Azimuth Distance (km) Brightness Sun altitude
Rises 05:12:10 0° 357° (N) 2,867 7.3 -9.4°
Reaches altitude 10° 05:14:22 10° 359° (N) 1,968 6.4 -9.8°
Maximum altitude 05:18:44 76° 83° (E) 640 3.5 -10.5°
Drops below altitude 10° 05:23:07 10° 168° (SSE) 1,985 5.9 -11.2°
Sets 05:25:21 0° 169° (S) 2,893 6.7 -11.6°
